This is the latest recevied weather packets stored in our database for station/object KK7RJD. If no packets are shown the sender has not sent any weather packets the latest 10 day(s).
| Time | Temp. | Humidity | Pressure | Rain* | Wind** | Luminosity | Snow |
|---|---|---|---|---|---|---|---|
| 1777333447 | 3.33° C | 64% | 1014.6 hPa | 0 mm | - | 98 W/m² | - |
| 1777333144 | 3.33° C | 63% | 1014.3 hPa | 0 mm | - | 97 W/m² | - |
| 1777332842 | 3.33° C | 63% | 1014.4 hPa | 0 mm | - | 97 W/m² | - |
| 1777332539 | 3.33° C | 63% | 1014.5 hPa | 0 mm | - | 107 W/m² | - |
| 1777332235 | 3.33° C | 63% | 1014.5 hPa | 0 mm | - | 109 W/m² | - |
| 1777331933 | 3.33° C | 64% | 1014.4 hPa | 0 mm | - | 115 W/m² | - |
| 1777331630 | 3.33° C | 63% | 1014.2 hPa | 0 mm | - | 117 W/m² | - |
| 1777331327 | 3.33° C | 63% | 1014.2 hPa | 0 mm | - | 97 W/m² | - |
| 1777331024 | 3.33° C | 63% | 1014.3 hPa | 0 mm | - | 85 W/m² | - |
| 1777330722 | 3.33° C | 63% | 1014.1 hPa | 0 mm | - | 93 W/m² | - |
| 1777330419 | 3.33° C | 63% | 1014.1 hPa | 0 mm | - | 100 W/m² | - |
| 1777330116 | 3.33° C | 63% | 1014 hPa | 0 mm | - | 107 W/m² | - |
| 1777329815 | 3.33° C | 63% | 1014 hPa | 0 mm | - | 121 W/m² | - |
| 1777329513 | 3.33° C | 63% | 1014 hPa | 0 mm | - | 123 W/m² | - |
| 1777329210 | 3.89° C | 62% | 1014 hPa | 0 mm | - | 112 W/m² | - |
| 1777328907 | 3.89° C | 58% | 1014 hPa | 0 mm | - | 128 W/m² | - |
| 1777328606 | 3.89° C | 58% | 1014.1 hPa | 0 mm | - | 140 W/m² | - |
| 1777328303 | 3.89° C | 58% | 1014.1 hPa | 0 mm | - | 139 W/m² | - |
| 1777328001 | 3.89° C | 57% | 1013.7 hPa | 0 mm | - | 126 W/m² | - |
| 1777327700 | 3.89° C | 58% | 1014 hPa | 0 mm | - | 125 W/m² | - |
| 1777327396 | 3.89° C | 58% | 1014 hPa | 0 mm | - | 131 W/m² | - |
| 1777327094 | 3.89° C | 58% | 1013.8 hPa | 0 mm | - | 162 W/m² | - |
| 1777326790 | 4.44° C | 56% | 1013.8 hPa | 0 mm | - | 199 W/m² | - |
| 1777326488 | 4.44° C | 57% | 1013.8 hPa | 0 mm | - | 199 W/m² | - |
| 1777326185 | 3.89° C | 57% | 1014 hPa | 0 mm | - | 181 W/m² | - |
* Rain latest hour (hover to see other rain measurements)
** Current wind speed in m/s (hover to see current wind gust speed)